EWG86 EDDK-EDDM

Flight info

Callsign EWG86
Flight time 0h 48m
Altitude 35000
Route KUMIK1R/31R KUMIK Y854 BOMBI T104 ROKIL ROKIL1B
Aircraft A319/M-SDE3FGHIRWY/LB1

Departure

Time 2026-05-06 19:28
Airport Cologne Bonn Airport (EDDK)

Arrival

Time 2026-05-06 20:17
Airport Munich Airport (EDDM)
Time Latitude Longitude Altitude Speed Heading
2026-05-06 18:49 50.87978 7.12367 230 ft 0 kts 216°
2026-05-06 19:14 50.87987 7.12377 230 ft 4 kts 214°
2026-05-06 19:14 50.88010 7.12399 233 ft 4 kts 205°
2026-05-06 19:15 50.88035 7.12414 234 ft 4 kts 185°
2026-05-06 19:15 50.88057 7.12408 231 ft 3 kts 133°
2026-05-06 19:15 50.88059 7.12405 231 ft 0 kts 130°
2026-05-06 19:18 50.88057 7.12408 231 ft 1 kts 130°
2026-05-06 19:18 50.88048 7.12424 234 ft 3 kts 130°
2026-05-06 19:19 50.88015 7.12474 231 ft 9 kts 137°
2026-05-06 19:19 50.87965 7.12547 231 ft 10 kts 137°
2026-05-06 19:19 50.87904 7.12612 231 ft 11 kts 169°
2026-05-06 19:19 50.87824 7.12627 230 ft 12 kts 155°
2026-05-06 19:20 50.87754 7.12717 231 ft 13 kts 138°
2026-05-06 19:20 50.87684 7.12821 231 ft 15 kts 137°
2026-05-06 19:20 50.87603 7.12938 231 ft 17 kts 137°
2026-05-06 19:20 50.87512 7.13069 232 ft 18 kts 137°
2026-05-06 19:21 50.87419 7.13205 233 ft 19 kts 137°
2026-05-06 19:21 50.87322 7.13344 235 ft 19 kts 137°
2026-05-06 19:21 50.87226 7.13485 237 ft 19 kts 137°
2026-05-06 19:21 50.87128 7.13627 240 ft 19 kts 138°
2026-05-06 19:22 50.87028 7.13771 243 ft 19 kts 137°
2026-05-06 19:22 50.86929 7.13916 244 ft 20 kts 137°
2026-05-06 19:22 50.86828 7.14060 248 ft 19 kts 137°
2026-05-06 19:22 50.86743 7.14136 252 ft 12 kts 165°
2026-05-06 19:23 50.86681 7.14212 256 ft 11 kts 137°
2026-05-06 19:23 50.86612 7.14312 258 ft 17 kts 137°
2026-05-06 19:23 50.86512 7.14458 258 ft 22 kts 137°
2026-05-06 19:23 50.86395 7.14626 264 ft 24 kts 138°
2026-05-06 19:24 50.86266 7.14813 269 ft 26 kts 138°
2026-05-06 19:24 50.86130 7.15012 272 ft 26 kts 137°
2026-05-06 19:24 50.86044 7.15218 274 ft 20 kts 88°
2026-05-06 19:24 50.86114 7.15353 273 ft 8 kts 17°
2026-05-06 19:25 50.86166 7.15355 273 ft 9 kts 351°
2026-05-06 19:25 50.86208 7.15340 273 ft 0 kts 348°
2026-05-06 19:26 50.86209 7.15340 273 ft 1 kts 348°
2026-05-06 19:26 50.86226 7.15334 273 ft 6 kts 348°
2026-05-06 19:27 50.86298 7.15307 271 ft 15 kts 346°
2026-05-06 19:27 50.86395 7.15291 267 ft 11 kts 346°
2026-05-06 19:27 50.86427 7.15255 267 ft 0 kts 317°
2026-05-06 19:27 50.86489 7.15166 267 ft 45 kts 317°
2026-05-06 19:28 50.86939 7.14513 258 ft 126 kts 317°
2026-05-06 19:28 50.87670 7.13450 712 ft 145 kts 318°
2026-05-06 19:28 50.88419 7.12366 1508 ft 147 kts 318°
2026-05-06 19:28 50.89256 7.11328 2114 ft 164 kts 335°
2026-05-06 19:29 50.90451 7.11092 2570 ft 190 kts 11°
2026-05-06 19:29 50.91743 7.11920 3241 ft 206 kts 25°
2026-05-06 19:29 50.93003 7.13029 4163 ft 215 kts 34°
2026-05-06 19:29 50.93964 7.14917 5013 ft 233 kts 60°
2026-05-06 19:30 50.94593 7.17430 5644 ft 257 kts 65°
2026-05-06 19:30 50.95351 7.20075 6539 ft 268 kts 62°
2026-05-06 19:30 50.96203 7.22750 7570 ft 273 kts 60°
2026-05-06 19:30 50.97070 7.25437 8706 ft 275 kts 60°
2026-05-06 19:31 50.97947 7.28136 9821 ft 277 kts 60°
2026-05-06 19:31 50.98852 7.30919 10480 ft 295 kts 60°
2026-05-06 19:31 51.00776 7.37242 11435 ft 338 kts 69°
2026-05-06 19:32 51.01307 7.40935 12234 ft 348 kts 81°
2026-05-06 19:32 51.01338 7.44766 13057 ft 357 kts 94°
2026-05-06 19:32 51.00837 7.48659 13874 ft 364 kts 106°
2026-05-06 19:32 51.00077 7.52531 14636 ft 369 kts 107°
2026-05-06 19:33 50.99306 7.56446 15392 ft 374 kts 107°
2026-05-06 19:33 50.98527 7.60416 16126 ft 380 kts 108°
2026-05-06 19:33 50.97737 7.64437 16864 ft 385 kts 108°
2026-05-06 19:33 50.96935 7.68509 17619 ft 389 kts 108°
2026-05-06 19:34 50.96120 7.72631 18343 ft 394 kts 108°
2026-05-06 19:34 50.95293 7.76795 18999 ft 398 kts 108°
2026-05-06 19:34 50.94383 7.80953 19671 ft 401 kts 114°
2026-05-06 19:34 50.93091 7.84802 20340 ft 403 kts 124°
2026-05-06 19:35 50.91533 7.88520 21024 ft 406 kts 125°
2026-05-06 19:35 50.89962 7.92257 21691 ft 409 kts 125°
2026-05-06 19:35 50.88380 7.96027 22329 ft 413 kts 125°
2026-05-06 19:35 50.86788 7.99825 22955 ft 416 kts 125°
2026-05-06 19:36 50.85162 8.03635 23527 ft 419 kts 128°
2026-05-06 19:36 50.83244 8.07093 24040 ft 419 kts 138°
2026-05-06 19:36 50.80991 8.10009 24571 ft 418 kts 148°
2026-05-06 19:36 50.78545 8.12505 25104 ft 420 kts 149°
2026-05-06 19:37 50.76080 8.14991 25639 ft 421 kts 149°
2026-05-06 19:37 50.73601 8.17487 26175 ft 423 kts 149°
2026-05-06 19:37 50.71116 8.19987 26700 ft 425 kts 149°
2026-05-06 19:37 50.68619 8.22496 27220 ft 427 kts 149°
2026-05-06 19:38 50.66140 8.24984 27720 ft 429 kts 149°
2026-05-06 19:38 50.63617 8.27509 28214 ft 431 kts 149°
2026-05-06 19:38 50.61082 8.30045 28699 ft 433 kts 149°
2026-05-06 19:38 50.58536 8.32593 29167 ft 435 kts 149°
2026-05-06 19:39 50.55980 8.35152 29683 ft 435 kts 149°
2026-05-06 19:39 50.53426 8.37702 30148 ft 436 kts 149°
2026-05-06 19:39 50.50855 8.40262 30479 ft 439 kts 149°
2026-05-06 19:39 50.48271 8.42837 30848 ft 440 kts 149°
2026-05-06 19:40 50.45690 8.45404 31325 ft 439 kts 150°
2026-05-06 19:40 50.43110 8.47963 31810 ft 438 kts 150°
2026-05-06 19:40 50.40533 8.50511 32283 ft 437 kts 150°
2026-05-06 19:40 50.37959 8.53051 32747 ft 437 kts 151°
2026-05-06 19:41 50.35396 8.55439 33239 ft 435 kts 153°
2026-05-06 19:41 50.32747 8.57726 33739 ft 433 kts 155°
2026-05-06 19:41 50.30079 8.59912 34184 ft 432 kts 155°
2026-05-06 19:41 50.27405 8.62056 34561 ft 432 kts 156°
2026-05-06 19:42 50.24723 8.64206 34802 ft 434 kts 155°
2026-05-06 19:42 50.22047 8.66381 34845 ft 433 kts 155°
2026-05-06 19:42 50.16737 8.70799 34856 ft 432 kts 154°
2026-05-06 19:43 50.11475 8.75207 34858 ft 432 kts 155°
2026-05-06 19:43 50.06212 8.79732 34854 ft 433 kts 149°
2026-05-06 19:44 50.01591 8.85822 34858 ft 437 kts 141°
2026-05-06 19:44 49.97101 8.92186 34852 ft 437 kts 141°
2026-05-06 19:45 49.92599 8.98517 34844 ft 436 kts 141°
2026-05-06 19:45 49.88098 9.04829 34832 ft 436 kts 141°
2026-05-06 19:46 49.83633 9.11099 34815 ft 435 kts 141°
2026-05-06 19:46 49.79152 9.17380 34834 ft 434 kts 141°
2026-05-06 19:47 49.74673 9.23625 34837 ft 433 kts 141°
2026-05-06 19:47 49.70194 9.29854 34829 ft 433 kts 141°
2026-05-06 19:48 49.65719 9.36073 34834 ft 433 kts 141°
2026-05-06 19:48 49.61332 9.42339 34818 ft 435 kts 136°
2026-05-06 19:49 49.57342 9.49363 34801 ft 435 kts 135°
2026-05-06 19:49 49.53346 9.56373 34804 ft 436 kts 135°
2026-05-06 19:50 49.49341 9.63363 34811 ft 436 kts 135°
2026-05-06 19:50 49.45329 9.70356 34820 ft 436 kts 135°
2026-05-06 19:51 49.41347 9.77289 34826 ft 436 kts 135°
2026-05-06 19:51 49.37331 9.84258 34829 ft 436 kts 135°
2026-05-06 19:52 49.33305 9.91213 34804 ft 436 kts 136°
2026-05-06 19:52 49.29273 9.98153 34814 ft 436 kts 136°
2026-05-06 19:53 49.25236 10.05083 34818 ft 436 kts 136°
2026-05-06 19:53 49.21222 10.11968 34828 ft 437 kts 136°
2026-05-06 19:54 49.17168 10.18898 34152 ft 439 kts 136°
2026-05-06 19:54 49.15107 10.22409 32935 ft 446 kts 136°
2026-05-06 19:54 49.13027 10.25928 31639 ft 447 kts 136°
2026-05-06 19:55 49.10901 10.29416 30341 ft 452 kts 137°
2026-05-06 19:55 49.08734 10.32894 29137 ft 453 kts 137°
2026-05-06 19:55 49.06549 10.36360 28022 ft 451 kts 137°
2026-05-06 19:55 49.04413 10.39740 26976 ft 448 kts 137°
2026-05-06 19:56 49.02259 10.43151 25996 ft 444 kts 137°
2026-05-06 19:56 49.00143 10.46523 25258 ft 435 kts 137°
2026-05-06 19:56 48.98101 10.49793 24998 ft 419 kts 137°
2026-05-06 19:56 48.96108 10.52986 24856 ft 413 kts 137°
2026-05-06 19:57 48.94131 10.56142 24890 ft 412 kts 137°
2026-05-06 19:57 48.92149 10.59298 24870 ft 412 kts 136°
2026-05-06 19:57 48.90165 10.62451 24883 ft 412 kts 136°
2026-05-06 19:57 48.88218 10.65540 23991 ft 409 kts 136°
2026-05-06 19:58 48.86235 10.68680 22456 ft 416 kts 136°
2026-05-06 19:58 48.84233 10.71840 21748 ft 410 kts 136°
2026-05-06 19:58 48.82276 10.74930 21127 ft 402 kts 136°
2026-05-06 19:58 48.80359 10.77960 20546 ft 395 kts 136°
2026-05-06 19:59 48.78468 10.80940 19966 ft 390 kts 137°
2026-05-06 19:59 48.76597 10.83883 19425 ft 385 kts 137°
2026-05-06 19:59 48.74745 10.86790 18881 ft 382 kts 137°
2026-05-06 19:59 48.72932 10.89626 18363 ft 378 kts 137°
2026-05-06 20:00 48.71109 10.92476 17789 ft 375 kts 137°
2026-05-06 20:00 48.69309 10.95295 17255 ft 370 kts 137°
2026-05-06 20:00 48.67531 10.98072 16724 ft 365 kts 137°
2026-05-06 20:00 48.65774 11.00805 16191 ft 360 kts 137°
2026-05-06 20:01 48.64035 11.03503 15651 ft 357 kts 138°
2026-05-06 20:01 48.62307 11.06183 15107 ft 355 kts 138°
2026-05-06 20:01 48.60611 11.08813 14555 ft 353 kts 138°
2026-05-06 20:01 48.58901 11.11465 13997 ft 352 kts 139°
2026-05-06 20:02 48.57058 11.13849 13387 ft 347 kts 149°
2026-05-06 20:02 48.55090 11.15926 12908 ft 344 kts 145°
2026-05-06 20:02 48.53507 11.18615 12601 ft 345 kts 127°
2026-05-06 20:02 48.52534 11.21932 12337 ft 349 kts 108°
2026-05-06 20:03 48.52283 11.25586 12083 ft 354 kts 89°
2026-05-06 20:03 48.52702 11.29257 11833 ft 356 kts 79°
2026-05-06 20:03 48.53229 11.32911 11536 ft 357 kts 79°
2026-05-06 20:03 48.53758 11.36566 11148 ft 356 kts 79°
2026-05-06 20:04 48.54275 11.40160 10763 ft 355 kts 79°
2026-05-06 20:04 48.54792 11.43794 10379 ft 353 kts 79°
2026-05-06 20:04 48.55299 11.47379 10159 ft 342 kts 79°
2026-05-06 20:04 48.55783 11.50820 10016 ft 329 kts 79°
2026-05-06 20:05 48.56251 11.54153 9799 ft 321 kts 79°
2026-05-06 20:05 48.56718 11.57425 9515 ft 317 kts 79°
2026-05-06 20:05 48.57178 11.60668 9218 ft 314 kts 80°
2026-05-06 20:05 48.57306 11.63916 8923 ft 309 kts 101°
2026-05-06 20:06 48.56811 11.67001 8448 ft 306 kts 110°
2026-05-06 20:06 48.56200 11.70071 8047 ft 303 kts 110°
2026-05-06 20:06 48.55575 11.73099 7666 ft 301 kts 111°
2026-05-06 20:06 48.54905 11.76074 7287 ft 299 kts 110°
2026-05-06 20:07 48.54259 11.79062 6911 ft 300 kts 110°
2026-05-06 20:07 48.53614 11.82050 6604 ft 299 kts 110°
2026-05-06 20:07 48.52972 11.85029 6388 ft 299 kts 110°
2026-05-06 20:07 48.52324 11.88007 6165 ft 299 kts 110°
2026-05-06 20:08 48.51665 11.90971 5934 ft 298 kts 110°
2026-05-06 20:08 48.51009 11.93889 5721 ft 297 kts 110°
2026-05-06 20:08 48.50343 11.96830 5491 ft 296 kts 110°
2026-05-06 20:08 48.49677 11.99759 5259 ft 292 kts 110°
2026-05-06 20:09 48.49029 12.02594 5064 ft 280 kts 110°
2026-05-06 20:09 48.48404 12.05299 4985 ft 265 kts 110°
2026-05-06 20:09 48.47706 12.07747 4988 ft 244 kts 126°
2026-05-06 20:09 48.46739 12.09742 4996 ft 230 kts 131°
2026-05-06 20:10 48.45764 12.11641 4998 ft 228 kts 133°
2026-05-06 20:10 48.44604 12.13126 4983 ft 208 kts 162°
2026-05-06 20:10 48.43266 12.13674 4985 ft 195 kts 181°
2026-05-06 20:10 48.41963 12.13683 4997 ft 185 kts 199°
2026-05-06 20:11 48.40773 12.13099 5007 ft 176 kts 217°
2026-05-06 20:11 48.39805 12.12048 5002 ft 169 kts 233°
2026-05-06 20:11 48.39111 12.10664 5003 ft 164 kts 248°
2026-05-06 20:11 48.38722 12.09077 4952 ft 161 kts 262°
2026-05-06 20:12 48.38583 12.07420 4801 ft 159 kts 266°
2026-05-06 20:12 48.38462 12.05770 4611 ft 158 kts 266°
2026-05-06 20:12 48.38343 12.04106 4412 ft 162 kts 266°
2026-05-06 20:12 48.38215 12.02395 4193 ft 167 kts 266°
2026-05-06 20:13 48.38085 12.00628 3960 ft 171 kts 265°
2026-05-06 20:13 48.37958 11.98896 3800 ft 164 kts 265°
2026-05-06 20:13 48.37827 11.97214 3526 ft 161 kts 266°
2026-05-06 20:13 48.37706 11.95561 3280 ft 157 kts 265°
2026-05-06 20:14 48.37585 11.93983 3093 ft 144 kts 265°
2026-05-06 20:14 48.37478 11.92561 2898 ft 132 kts 265°
2026-05-06 20:14 48.37376 11.91202 2698 ft 127 kts 265°
2026-05-06 20:14 48.37275 11.89919 2544 ft 122 kts 264°
2026-05-06 20:15 48.37181 11.88620 2344 ft 126 kts 264°
2026-05-06 20:15 48.37086 11.87333 2182 ft 126 kts 263°
2026-05-06 20:15 48.36985 11.86016 1995 ft 123 kts 261°
2026-05-06 20:15 48.36889 11.84780 1846 ft 115 kts 260°
2026-05-06 20:16 48.36792 11.83547 1711 ft 122 kts 262°
2026-05-06 20:16 48.36695 11.82259 1565 ft 126 kts 262°
2026-05-06 20:16 48.36600 11.81013 1481 ft 109 kts 264°
2026-05-06 20:16 48.36533 11.80112 1485 ft 62 kts 263°
2026-05-06 20:17 48.36496 11.79641 1485 ft 40 kts 263°
2026-05-06 20:17 48.36468 11.79251 1485 ft 36 kts 263°
2026-05-06 20:17 48.36427 11.78994 1478 ft 22 kts 248°
2026-05-06 20:17 48.36349 11.78803 1480 ft 21 kts 233°
2026-05-06 20:18 48.36286 11.78676 1485 ft 9 kts 232°
2026-05-06 20:18 48.36245 11.78596 1481 ft 11 kts 233°
2026-05-06 20:18 48.36221 11.78545 1483 ft 0 kts 233°
2026-05-06 20:19 48.36213 11.78529 1483 ft 4 kts 233°
2026-05-06 20:19 48.36185 11.78473 1485 ft 7 kts 233°
2026-05-06 20:19 48.36163 11.78428 1478 ft 0 kts 233°
2026-05-06 20:19 48.36157 11.78417 1485 ft 4 kts 233°
2026-05-06 20:20 48.36131 11.78351 1482 ft 11 kts 248°
2026-05-06 20:20 48.36117 11.78208 1485 ft 17 kts 264°
2026-05-06 20:20 48.36101 11.78008 1485 ft 21 kts 263°
2026-05-06 20:20 48.36085 11.77791 1478 ft 20 kts 263°
2026-05-06 20:21 48.36029 11.77665 1481 ft 16 kts 178°
2026-05-06 20:21 48.35914 11.77684 1477 ft 17 kts 173°
2026-05-06 20:21 48.35790 11.77705 1484 ft 19 kts 173°
2026-05-06 20:21 48.35649 11.77730 1482 ft 23 kts 172°
2026-05-06 20:22 48.35476 11.77760 1480 ft 26 kts 174°
2026-05-06 20:22 48.35338 11.77818 1485 ft 17 kts 123°
2026-05-06 20:22 48.35344 11.77993 1475 ft 18 kts 82°
2026-05-06 20:22 48.35361 11.78153 1481 ft 14 kts 82°
2026-05-06 20:23 48.35369 11.78244 1485 ft 7 kts 83°
2026-05-06 20:23 48.35374 11.78301 1473 ft 2 kts 84°
2026-05-06 20:23 48.35374 11.78303 1474 ft 0 kts 84°